Location: G�migny
(47.9646°N, 1.6950°E)
Time: 00:29:40
(UTC+00:00)

YAOGAN 6 - Pass Details

Date: 30 January 2020
Orbit: 465 x 505 km, 97.0° (Epoch: 24 February)

Event Time Altitude Azimuth Distance (km) Brightness Sun altitude
Rises 06:46:28 0° 12° (NNE) 2,531 6.1 -6.7°
Reaches altitude 10° 06:48:33 10° 14° (NNE) 1,643 5.2 -6.3°
Maximum altitude 06:52:05 84° 103° (ESE) 478 2.6 -5.8°
Drops below altitude 10° 06:55:33 10° 191° (S) 1,617 5.4 -5.2°
Sets 06:57:35 0° 192° (SSW) 2,487 6.3 -4.9°
